[keps] orb07137.amsat
Ray Hoad
r.hoad at att.net
Thu May 17 18:58:00 PDT 2007
SB KEPS @ AMSAT $ORB07137.O
Orbital Elements 07137.OSCAR
HR AMSAT ORBITAL ELEMENTS FOR OSCAR SATELLITES
FROM WA5QGD FORT WORTH,TX May 17, 2007
Send SUBSCRIBE KEPS/UNSUBSCRIBE KEPS to majordomo at amsat.org only
BID: ORB07137.O
TO ALL RADIO AMATEURS BT
Satellite: AO-07
Catalog number: 07530
Epoch time: 07136.77754277
Element set: 876
Inclination: 101.5165 deg
RA of node: 175.7072 deg
Eccentricity: 0.0011955
Arg of perigee: 318.4721 deg
Mean anomaly: 041.5438 deg
Mean motion: 12.53572532 rev/day
Decay rate: -2.8e-07 rev/day^2
Epoch rev: 48718
Checksum: 311
Satellite: AO-10
Catalog number: 14129
Epoch time: 07135.51427658
Element set: 380
Inclination: 026.5782 deg
RA of node: 276.9597 deg
Eccentricity: 0.6059797
Arg of perigee: 022.3278 deg
Mean anomaly: 355.4363 deg
Mean motion: 02.05868670 rev/day
Decay rate: 1.3e-07 rev/day^2
Epoch rev: 17989
Checksum: 345
Satellite: UO-11
Catalog number: 14781
Epoch time: 07136.81088919
Element set: 373
Inclination: 098.1905 deg
RA of node: 158.9058 deg
Eccentricity: 0.0007987
Arg of perigee: 274.4562 deg
Mean anomaly: 085.5728 deg
Mean motion: 14.79548189 rev/day
Decay rate: -2.48e-06 rev/day^2
Epoch rev: 24509
Checksum: 362
Satellite: RS-15
Catalog number: 23439
Epoch time: 07133.92510430
Element set: 0059
Inclination: 064.8185 deg
RA of node: 062.3259 deg
Eccentricity: 0.0160502
Arg of perigee: 196.9121 deg
Mean anomaly: 162.6413 deg
Mean motion: 11.27551944 rev/day
Decay rate: -3.9e-07 rev/day^2
Epoch rev: 50983
Checksum: 292
Satellite: FO-29
Catalog number: 24278
Epoch time: 07136.84792132
Element set: 503
Inclination: 098.5490 deg
RA of node: 100.7075 deg
Eccentricity: 0.0351033
Arg of perigee: 164.3939 deg
Mean anomaly: 196.8359 deg
Mean motion: 13.52930610 rev/day
Decay rate: 3.9e-07 rev/day^2
Epoch rev: 53066
Checksum: 314
Satellite: SO-33
Catalog number: 25509
Epoch time: 07136.94951511
Element set: 928
Inclination: 031.4296 deg
RA of node: 042.3567 deg
Eccentricity: 0.0355130
Arg of perigee: 154.3629 deg
Mean anomaly: 207.5068 deg
Mean motion: 14.28167095 rev/day
Decay rate: 9.8e-07 rev/day^2
Epoch rev: 44678
Checksum: 325
Satellite: AO-40
Catalog number: 26609
Epoch time: 07137.28550273
Element set: 878
Inclination: 005.3262 deg
RA of node: 146.9932 deg
Eccentricity: 0.7990268
Arg of perigee: 316.9085 deg
Mean anomaly: 002.8916 deg
Mean motion: 01.25587508 rev/day
Decay rate: -1.55e-06 rev/day^2
Epoch rev: 3005
Checksum: 322
Satellite: VO-52
Catalog number: 28650
Epoch time: 07136.90164970
Element set: 628
Inclination: 097.8322 deg
RA of node: 208.3161 deg
Eccentricity: 0.0027394
Arg of perigee: 358.1687 deg
Mean anomaly: 001.9440 deg
Mean motion: 14.81311329 rev/day
Decay rate: 3.07e-06 rev/day^2
Epoch rev: 10978
Checksum: 308
Satellite: PO-63
Catalog number: 29712
Epoch time: 07137.54440852
Element set: 369
Inclination: 097.9227 deg
RA of node: 197.1268 deg
Eccentricity: 0.0013219
Arg of perigee: 224.8450 deg
Mean anomaly: 135.1694 deg
Mean motion: 14.79679358 rev/day
Decay rate: 5.43e-06 rev/day^2
Epoch rev: 1880
Checksum: 336
/EX
SB KEPS @ AMSAT $ORB07137.D
Orbital Elements 07137.MICROS
HR AMSAT ORBITAL ELEMENTS FOR THE MICROSATS
FROM WA5QGD FORT WORTH,TX May 17, 2007
Send SUBSCRIBE KEPS/UNSUBSCRIBE KEPS to majordomo at amsat.org only
BID: ORB07137.D
TO ALL RADIO AMATEURS BT
Satellite: AO-16
Catalog number: 20439
Epoch time: 07136.92212652
Element set: 35
Inclination: 098.1950 deg
RA of node: 133.2033 deg
Eccentricity: 0.0010006
Arg of perigee: 283.4836 deg
Mean anomaly: 076.5225 deg
Mean motion: 14.31759748 rev/day
Decay rate: 3.5e-07 rev/day^2
Epoch rev: 90407
Checksum: 282
Satellite: LO-19
Catalog number: 20442
Epoch time: 07137.10557050
Element set: 962
Inclination: 098.1790 deg
RA of node: 142.7686 deg
Eccentricity: 0.0010968
Arg of perigee: 281.4412 deg
Mean anomaly: 078.5536 deg
Mean motion: 14.32000198 rev/day
Decay rate: -1.1e-07 rev/day^2
Epoch rev: 90424
Checksum: 289
Satellite: AO-27
Catalog number: 22825
Epoch time: 07136.48402511
Element set: 685
Inclination: 098.3290 deg
RA of node: 107.7516 deg
Eccentricity: 0.0008449
Arg of perigee: 003.6110 deg
Mean anomaly: 356.5131 deg
Mean motion: 14.29207727 rev/day
Decay rate: -7.9e-07 rev/day^2
Epoch rev: 71096
Checksum: 299
Satellite: IO-26
Catalog number: 22826
Epoch time: 07137.44676085
Element set: 382
Inclination: 098.3215 deg
RA of node: 109.7561 deg
Eccentricity: 0.0009220
Arg of perigee: 356.9453 deg
Mean anomaly: 003.1677 deg
Mean motion: 14.29454416 rev/day
Decay rate: 1.9e-07 rev/day^2
Epoch rev: 71118
Checksum: 307
Satellite: PO-28
Catalog number: 22829
Epoch time: 07136.92804688
Element set: 659
Inclination: 098.3097 deg
RA of node: 110.4307 deg
Eccentricity: 0.0009421
Arg of perigee: 331.5530 deg
Mean anomaly: 028.5124 deg
Mean motion: 14.30153918 rev/day
Decay rate: -2.2e-07 rev/day^2
Epoch rev: 71134
Checksum: 292
Satellite: GO-32
Catalog number: 25397
Epoch time: 07137.15435640
Element set: 302
Inclination: 098.4158 deg
RA of node: 185.7220 deg
Eccentricity: 0.0001133
Arg of perigee: 008.9745 deg
Mean anomaly: 351.1436 deg
Mean motion: 14.23125389 rev/day
Decay rate: 2.2e-07 rev/day^2
Epoch rev: 45974
Checksum: 288
Satellite: MO-46
Catalog number: 26548
Epoch time: 07135.41403069
Element set: 794
Inclination: 064.5561 deg
RA of node: 284.0523 deg
Eccentricity: 0.0019628
Arg of perigee: 201.1498 deg
Mean anomaly: 158.8818 deg
Mean motion: 14.83135973 rev/day
Decay rate: 3.5e-07 rev/day^2
Epoch rev: 35867
Checksum: 331
Satellite: NO-44
Catalog number: 26931
Epoch time: 07136.46369965
Element set: 587
Inclination: 067.0535 deg
RA of node: 229.2060 deg
Eccentricity: 0.0007520
Arg of perigee: 271.4353 deg
Mean anomaly: 088.5863 deg
Mean motion: 14.29484561 rev/day
Decay rate: 1.18e-06 rev/day^2
Epoch rev: 29356
Checksum: 327
Satellite: SO-50
Catalog number: 27607
Epoch time: 07135.42853664
Element set: 312
Inclination: 064.5583 deg
RA of node: 184.4937 deg
Eccentricity: 0.0050199
Arg of perigee: 009.3976 deg
Mean anomaly: 350.8043 deg
Mean motion: 14.71255980 rev/day
Decay rate: 4.6e-07 rev/day^2
Epoch rev: 23630
Checksum: 312
Satellite: CO-55
Catalog number: 27844
Epoch time: 07137.67568492
Element set: 29
Inclination: 098.7190 deg
RA of node: 146.3960 deg
Eccentricity: 0.0009662
Arg of perigee: 174.2461 deg
Mean anomaly: 185.8830 deg
Mean motion: 14.20510685 rev/day
Decay rate: 6.3e-07 rev/day^2
Epoch rev: 20114
Checksum: 315
Satellite: CO-57
Catalog number: 27848
Epoch time: 07137.55147087
Element set: 989
Inclination: 098.7180 deg
RA of node: 145.4795 deg
Eccentricity: 0.0009505
Arg of perigee: 178.3924 deg
Mean anomaly: 181.7293 deg
Mean motion: 14.20329873 rev/day
Decay rate: 5.5e-07 rev/day^2
Epoch rev: 20110
Checksum: 338
Satellite: AO-51
Catalog number: 28375
Epoch time: 07137.17319367
Element set: 816
Inclination: 098.1154 deg
RA of node: 178.0864 deg
Eccentricity: 0.0083435
Arg of perigee: 277.1715 deg
Mean anomaly: 081.9995 deg
Mean motion: 14.40566546 rev/day
Decay rate: 2.2e-07 rev/day^2
Epoch rev: 15124
Checksum: 326
Satellite: CO-56
Catalog number: 28941
Epoch time: 07136.73545597
Element set: 437
Inclination: 098.1317 deg
RA of node: 194.3426 deg
Eccentricity: 0.0230009
Arg of perigee: 024.7811 deg
Mean anomaly: 336.4273 deg
Mean motion: 15.38850327 rev/day
Decay rate: 1.9573e-04 rev/day^2
Epoch rev: 6859
Checksum: 337
Satellite: HO-59
Catalog number: 29484
Epoch time: 07137.64567198
Element set: 329
Inclination: 098.2862 deg
RA of node: 182.8070 deg
Eccentricity: 0.0215272
Arg of perigee: 015.7570 deg
Mean anomaly: 345.0210 deg
Mean motion: 15.49247037 rev/day
Decay rate: 4.1430e-04 rev/day^2
Epoch rev: 3634
Checksum: 317
Satellite: NO-60
Catalog number: 29661
Epoch time: 07137.73665623
Element set: 273
Inclination: 051.6345 deg
RA of node: 244.6994 deg
Eccentricity: 0.0007980
Arg of perigee: 306.9810 deg
Mean anomaly: 053.0481 deg
Mean motion: 16.12945067 rev/day
Decay rate: 3.30226e-03 rev/day^2
Epoch rev: 2354
Checksum: 310
Satellite: NO-61
Catalog number: 29664
Epoch time: 07137.20317075
Element set: 170
Inclination: 051.6327 deg
RA of node: 255.5065 deg
Eccentricity: 0.0012545
Arg of perigee: 224.0356 deg
Mean anomaly: 135.9738 deg
Mean motion: 15.89627557 rev/day
Decay rate: 2.6698e-04 rev/day^2
Epoch rev: 2322
Checksum: 315
Satellite: CP4
Catalog number: 31122
Epoch time: 07136.41728986
Element set: 37
Inclination: 098.0861 deg
RA of node: 210.7199 deg
Eccentricity: 0.0087281
Arg of perigee: 123.6862 deg
Mean anomaly: 237.2636 deg
Mean motion: 14.55001005 rev/day
Decay rate: 5.99e-06 rev/day^2
Epoch rev: 423
Checksum: 291
Satellite: CP3
Catalog number: 31128
Epoch time: 07136.75647157
Element set: 28
Inclination: 098.0813 deg
RA of node: 210.9024 deg
Eccentricity: 0.0103833
Arg of perigee: 122.4376 deg
Mean anomaly: 238.6900 deg
Mean motion: 14.51831511 rev/day
Decay rate: -4.6e-07 rev/day^2
Epoch rev: 426
Checksum: 268
Satellite: LIBERT
Catalog number: 31129
Epoch time: 07137.16827526
Element set: 81
Inclination: 098.0852 deg
RA of node: 211.3035 deg
Eccentricity: 0.0103676
Arg of perigee: 121.2484 deg
Mean anomaly: 239.8848 deg
Mean motion: 14.51918920 rev/day
Decay rate: 3.86e-06 rev/day^2
Epoch rev: 430
Checksum: 287
/EX
SB KEPS @ AMSAT $ORB07137.W
Orbital Elements 07137.WEATHER
HR AMSAT ORBITAL ELEMENTS FOR WEATHER SATELLITES
FROM WA5QGD FORT WORTH,TX May 17, 2007
Send SUBSCRIBE KEPS/UNSUBSCRIBE KEPS to majordomo at amsat.org only
BID: ORB07137.W
TO ALL RADIO AMATEURS BT
Satellite: NOAA-10
Catalog number: 16969
Epoch time: 07137.45872363
Element set: 660
Inclination: 098.7453 deg
RA of node: 154.6214 deg
Eccentricity: 0.0011446
Arg of perigee: 256.8634 deg
Mean anomaly: 103.1278 deg
Mean motion: 14.27324537 rev/day
Decay rate: -3.8e-07 rev/day^2
Epoch rev: 7484
Checksum: 315
